AZERSPACE 2 (IS-38)

Last updated on Tue Sep 22 2026 00:03:14 GMT+0000 (Coordinated Universal Time)

1 43632U 18074A 26264.07038216 .00000000 00000+0 00000+0 0 9993 2 43632 0.0224 140.7502 0000935 59.3328 230.3224 1.00269502 29400
UTC large
Height (km)
Speed (km/s)
/
Latitude / Longitude
Inclination (degrees)
Orbital Period (minutes)
Azimuth
Elevation
Range (km)
Doppler Factor

Next 0 passes for location: London (51.5072 / 0.1276)

No passes found over London.
AZERSPACE 2 (IS-38)